Weather History for Logansport, IN

Change the Weather History Date:

Thursday, January 3, 2013

  Actual Average Record
Temperature  
Mean Temperature 22 °F -  
Max Temperature 30 °F 42 °F 30 °F (2013)
Min Temperature 14 °F 28 °F -9 °F (2014)
Degree Days  
Heating Degree Days 43    
Moisture  
Dew Point 16 °F    
Average Humidity 77    
Maximum Humidity 86    
Minimum Humidity 68    
Precipitation  
Precipitation 0.00 in - - ()
Sea Level Pressure  
Sea Level Pressure 30.21 in    
Wind  
Wind Speed 11 mph (WSW)    
Max Wind Speed 23 mph    
Max Gust Speed 26 mph    
Visibility 10 miles    
Events      
Averages and records for this station are not official NWS values.
T = Trace of Precipitation, MM = Missing Value Source: NWS Daily Summary

Daily Weather History Graph

Daily Weather History Graph

Search for Another Location

Airport:

Trip Planner

Search our weather history database for the weather conditions in past years. The results will help you decide how hot, cold, wet, or windy it might be!

Date:

Astronomy

Jan. 03, 2013 Rise Set
Actual Time 8:09 AM EST 5:30 PM EST
Civil Twilight 7:38 AM EST 6:01 PM EST
Nautical Twilight 7:04 AM EST 6:35 PM EST
Astronomical Twilight 6:31 AM EST 7:09 PM EST
Moon No Moon Rise 11:18 AM EST (1/3)
Length of Visible Light 10h 22m
Length of Day
9h 21m
Waning Gibbous, 65% of the Moon is Illuminated
Jan 3
Waning Gibbous
Jan 4
Last Quarter
Jan 11
New
Jan 18
First Quarter
Jan 26
Full

Hourly Weather History & Observations

Time (EST) Temp. Windchill Dew Point Humidity Pressure Visibility Wind Dir Wind Speed Gust Speed Precip Events Conditions
12:15 AM 14.0 °F 2.9 °F 6.8 °F 73% 30.17 in 10.0 mi South 8.1 mph - N/A   Clear
12:35 AM 14.0 °F 2.0 °F 6.8 °F 73% 30.16 in 10.0 mi South 9.2 mph - N/A   Clear
12:55 AM 15.8 °F 3.4 °F 6.8 °F 68% 30.17 in 10.0 mi SSW 10.4 mph - N/A   Clear
1:15 AM 14.0 °F 2.0 °F 6.8 °F 73% 30.17 in 10.0 mi SW 9.2 mph - N/A   Clear
1:35 AM 15.8 °F 4.2 °F 6.8 °F 68% 30.16 in 10.0 mi SSW 9.2 mph - N/A   Clear
1:55 AM 15.8 °F 3.4 °F 6.8 °F 68% 30.16 in 10.0 mi SSW 10.4 mph - N/A   Clear
2:15 AM 15.8 °F 3.4 °F 6.8 °F 68% 30.16 in 10.0 mi SSW 10.4 mph - N/A   Clear
2:35 AM 15.8 °F 4.2 °F 6.8 °F 68% 30.16 in 10.0 mi SSW 9.2 mph - N/A   Clear
2:55 AM 14.0 °F 2.0 °F 6.8 °F 73% 30.16 in 10.0 mi SW 9.2 mph - N/A   Clear
3:15 AM 15.8 °F 4.2 °F 6.8 °F 68% 30.16 in 10.0 mi SSW 9.2 mph - N/A   Clear
3:35 AM 15.8 °F 4.2 °F 6.8 °F 68% 30.16 in 10.0 mi SW 9.2 mph - N/A   Clear
3:55 AM 15.8 °F 3.4 °F 6.8 °F 68% 30.16 in 10.0 mi SSW 10.4 mph - N/A   Scattered Clouds
4:15 AM 15.8 °F 3.4 °F 6.8 °F 68% 30.16 in 10.0 mi SSW 10.4 mph - N/A   Mostly Cloudy
4:35 AM 17.6 °F 6.4 °F 8.6 °F 68% 30.16 in 10.0 mi SW 9.2 mph - N/A   Overcast
4:55 AM 17.6 °F 5.0 °F 8.6 °F 68% 30.16 in 10.0 mi SW 11.5 mph - N/A   Overcast
5:15 AM 19.4 °F 6.6 °F 10.4 °F 68% 30.16 in 10.0 mi SW 12.7 mph - N/A   Overcast
5:35 AM 19.4 °F 6.6 °F 10.4 °F 68% 30.16 in 10.0 mi SW 12.7 mph - N/A   Overcast
5:55 AM 19.4 °F 7.9 °F 10.4 °F 68% 30.16 in 10.0 mi SW 10.4 mph - N/A   Overcast
6:15 AM 19.4 °F 8.6 °F 10.4 °F 68% 30.16 in 10.0 mi WSW 9.2 mph - N/A   Overcast
6:35 AM 19.4 °F 7.9 °F 12.2 °F 74% 30.17 in 10.0 mi SW 10.4 mph - N/A   Overcast
6:55 AM 19.4 °F 7.9 °F 12.2 °F 74% 30.17 in 10.0 mi SW 10.4 mph - N/A   Overcast
7:15 AM 21.2 °F 10.1 °F 14.0 °F 74% 30.16 in 10.0 mi SW 10.4 mph - N/A   Overcast
7:35 AM 21.2 °F 10.1 °F 14.0 °F 74% 30.16 in 10.0 mi SW 10.4 mph - N/A   Overcast
8:15 AM 19.4 °F 8.6 °F 14.0 °F 80% 30.18 in 10.0 mi WSW 9.2 mph - N/A   Mostly Cloudy
8:35 AM 21.2 °F 9.5 °F 14.0 °F 74% 30.17 in 10.0 mi SW 11.5 mph - N/A   Overcast
8:55 AM 21.2 °F 10.1 °F 15.8 °F 80% 30.18 in 10.0 mi SW 10.4 mph - N/A   Overcast
9:15 AM 21.2 °F 9.5 °F 17.6 °F 86% 30.17 in 10.0 mi SW 11.5 mph - N/A   Overcast
9:55 AM 23.0 °F 12.4 °F 17.6 °F 80% 30.19 in 10.0 mi SW 10.4 mph - N/A   Overcast
10:15 AM 23.0 °F 10.1 °F 19.4 °F 86% 30.20 in 10.0 mi SW 15.0 mph - N/A   Overcast
10:35 AM 23.0 °F 11.1 °F 17.6 °F 80% 30.21 in 10.0 mi SW 12.7 mph - N/A   Overcast
10:55 AM 23.0 °F 10.6 °F 19.4 °F 86% 30.21 in 10.0 mi SW 13.8 mph - N/A   Overcast
11:15 AM 24.8 °F 13.4 °F 19.4 °F 80% 30.21 in 10.0 mi WSW 12.7 mph - N/A   Overcast
11:35 AM 24.8 °F 14.0 °F 19.4 °F 80% 30.20 in 7.0 mi SW 11.5 mph - N/A   Mostly Cloudy
11:55 AM 26.6 °F 16.2 °F 21.2 °F 80% 30.20 in 7.0 mi SW 11.5 mph - N/A   Scattered Clouds
12:15 PM 28.4 °F 18.0 °F 21.2 °F 74% 30.21 in 7.0 mi WSW 12.7 mph 16.1 mph N/A   Mostly Cloudy
12:35 PM 28.4 °F 17.0 °F 23.0 °F 80% 30.20 in 7.0 mi West 15.0 mph - N/A   Mostly Cloudy
12:55 PM 28.4 °F 17.5 °F 23.0 °F 80% 30.20 in 10.0 mi West 13.8 mph - N/A   Overcast
1:15 PM 28.4 °F 17.5 °F 23.0 °F 80% 30.19 in 7.0 mi WSW 13.8 mph - N/A   Overcast
1:35 PM 30.2 °F 19.3 °F 24.8 °F 80% 30.19 in 7.0 mi WSW 15.0 mph - N/A   Overcast
1:55 PM 30.2 °F 18.9 °F 24.8 °F 80% 30.18 in 7.0 mi WSW 16.1 mph - N/A   Overcast
2:15 PM 30.2 °F 19.8 °F 26.6 °F 86% 30.19 in 7.0 mi WSW 13.8 mph 18.4 mph N/A   Overcast
2:35 PM 30.2 °F 19.3 °F 24.8 °F 80% 30.19 in 10.0 mi West 15.0 mph - N/A   Overcast
2:55 PM 30.2 °F 19.3 °F 26.6 °F 86% 30.19 in 7.0 mi WSW 15.0 mph - N/A   Overcast
3:15 PM 30.2 °F 18.9 °F 26.6 °F 86% 30.20 in 10.0 mi WSW 16.1 mph 24.2 mph N/A   Overcast
3:35 PM 30.2 °F 18.5 °F 26.6 °F 86% 30.21 in 10.0 mi West 17.3 mph - N/A   Overcast
3:55 PM 30.2 °F 18.9 °F 26.6 °F 86% 30.21 in 10.0 mi WSW 16.1 mph - N/A   Overcast
4:15 PM 30.2 °F 19.3 °F 26.6 °F 86% 30.22 in 10.0 mi West 15.0 mph - N/A   Overcast
4:35 PM 30.2 °F 18.9 °F 24.8 °F 80% 30.22 in 10.0 mi West 16.1 mph 21.9 mph N/A   Overcast
4:55 PM 30.2 °F 19.3 °F 24.8 °F 80% 30.23 in 10.0 mi West 15.0 mph - N/A   Overcast
5:15 PM 30.2 °F 19.8 °F 23.0 °F 75% 30.23 in 10.0 mi West 13.8 mph 20.7 mph N/A   Overcast
5:55 PM 30.2 °F 18.9 °F 23.0 °F 75% 30.24 in 10.0 mi West 16.1 mph 20.7 mph N/A   Overcast
6:15 PM 30.2 °F 19.3 °F 23.0 °F 75% 30.24 in 10.0 mi WSW 15.0 mph - N/A   Overcast
6:35 PM 30.2 °F 16.8 °F 21.2 °F 69% 30.24 in 10.0 mi West 23.0 mph 26.5 mph N/A   Overcast
6:55 PM 28.4 °F 16.6 °F 21.2 °F 74% 30.25 in 10.0 mi West 16.1 mph - N/A   Mostly Cloudy
7:15 PM 26.6 °F 14.7 °F 21.2 °F 80% 30.25 in 10.0 mi West 15.0 mph - N/A   Scattered Clouds
7:35 PM 26.6 °F 15.2 °F 19.4 °F 74% 30.26 in 10.0 mi West 13.8 mph - N/A   Clear
7:55 PM 26.6 °F 15.2 °F 19.4 °F 74% 30.27 in 10.0 mi West 13.8 mph 17.3 mph N/A   Clear
8:15 PM 24.8 °F 13.4 °F 19.4 °F 80% 30.27 in 10.0 mi West 12.7 mph - N/A   Clear
8:35 PM 24.8 °F 14.0 °F 19.4 °F 80% 30.27 in 10.0 mi West 11.5 mph - N/A   Clear
8:55 PM 23.0 °F 13.1 °F 17.6 °F 80% 30.28 in 10.0 mi West 9.2 mph - N/A   Clear
9:15 PM 23.0 °F 12.4 °F 17.6 °F 80% 30.28 in 10.0 mi West 10.4 mph - N/A   Clear
9:35 PM 21.2 °F 10.1 °F 15.8 °F 80% 30.28 in 10.0 mi West 10.4 mph - N/A   Clear
9:55 PM 21.2 °F 10.1 °F 15.8 °F 80% 30.28 in 10.0 mi West 10.4 mph - N/A   Clear
10:15 PM 21.2 °F 10.9 °F 15.8 °F 80% 30.28 in 10.0 mi West 9.2 mph - N/A   Clear
10:35 PM 21.2 °F 9.5 °F 15.8 °F 80% 30.28 in 10.0 mi West 11.5 mph - N/A   Clear
10:55 PM 21.2 °F 9.5 °F 15.8 °F 80% 30.28 in 10.0 mi WSW 11.5 mph - N/A   Clear
11:15 PM 19.4 °F 8.6 °F 14.0 °F 80% 30.28 in 10.0 mi West 9.2 mph - N/A   Clear
11:35 PM 17.6 °F 7.3 °F 14.0 °F 86% 30.28 in 10.0 mi WSW 8.1 mph - N/A   Clear
11:55 PM 17.6 °F 6.4 °F 14.0 °F 86% 30.28 in 10.0 mi WSW 9.2 mph - N/A   Clear